Tracking 25410 objects as of 21-Jan-2022
HD Live streaming from Space Station
objects crossing your sky now

EXPLORER 16

Track EXPLORER 16 now!
10-day predictions
EXPLORER 16 is classified as:


NORAD ID: 506
Int'l Code: 1962-070A
Perigee: 749.7 km
Apogee: 1,155.5 km
Inclination: 52.0 °
Period: 104.0 minutes
Semi major axis: 7323 km
RCS: 0.6378 m2 (medium)
Launch date: December 16, 1962
Source: United States (US)
Launch site: WALLOPS ISLAND (WLPIS)
aabbcc
Your satellite tracking list
Your tracking list is empty




NASA's NSSDC Master Catalog

Two Line Element Set (TLE):
1 00506U 62070A   22020.76959037 -.00000114  00000-0  19243-4 0  9998
2 00506  52.0045  39.8018 0277046 220.5200 137.4800 13.85204062985809
Source of the keplerian elements: AFSPC